Regional Weather Roundup
Issued by NWS

Home | Current Version | Previous Version | Graphics & Text | Print | Product List | Glossary On
Versions: 1 2 3 4 5 6 7 8 9 10 11 12 13 14 15 16 17 18 19 20 21 22 23 24 25 26 27 28 29 30 31 32 33 34 35 36 37 38 39 40 41 42 43 44 45 46 47 48 49 50
000
ASUS43 KIND 050509
RWRIN

WEATHER ROUNDUP FOR INDIANA
NATIONAL WEATHER SERVICE INDIANAPOLIS IN
100 AM EDT THU MAY 05 2016

NOTE: "FAIR" INDICATES FEW OR NO CLOUDS BELOW 12,000 FEET WITH NO
SIGNIFICANT WEATHER AND/OR OBSTRUCTIONS TO VISIBILITY.

* - STATION DOES NOT REPORT WEATHER SUCH AS PRECIPITATION OR FOG.

+ - STATION NOT QUALITY CONTROLLED BY THE NATIONAL WEATHER SERVICE.
    USE DATA WITH CAUTION...ESPECIALLY DEWPOINT AND RELATIVE
    HUMIDITY OBSERVATIONS.

INZ001>003-010>013-019-020-050600-
NORTHWEST INDIANA

CITY           SKY/WX    TMP DP  RH WIND       PRES   REMARKS
GARY /AIRPORT/ CLOUDY    44  41  88 N29G38    29.86R
KNOX *+        CLOUDY    41  36  81 N22G29    29.78S
LA PORTE +     LGT RAIN  42  42 100 N26G35    29.79S
MICHIGAN CITY+ RAIN      39  39 100 N23G32    29.82S
MONTICELLO +   LGT RAIN  42  35  77 N23       29.77F
RENSSELAER +   CLOUDY    43  37  81 NW14G21   29.81S
VALPARAISO     LGT RAIN  40  37  89 N17G29    29.81S

$$

LMZ046-743>745-050600-
SOUTHERN LAKE MICHIGAN

STATION/POSITION TIME  TEMP    WIND        PRES    WAVE
                       AIR SEA DIR/SP/G            HT
                 (UTC) (F)     (DEG/KT/KT) (MB)    (FT)
BURNS HARBOR     0401   44     360/ 29     1010.2F
MICHIGAN CITY    0400   41     340/ 34/ 37   N/A

$$

INZ004-005-014>016-021>024-050600-
NORTH CENTRAL INDIANA

CITY           SKY/WX    TMP DP  RH WIND       PRES   REMARKS
GOSHEN         CLOUDY    43  40  89 N13       29.73R
LOGANSPORT +   LGT RAIN  41  37  87 NW10G17   29.77S
PERU/GRISSOM   LGT RAIN  41  41 100 N13       29.73S
ROCHESTER +    CLOUDY    43  41  93 NW15G23   29.75S FOG
SOUTH BEND     CLOUDY    40  39  97 N18       29.77R
WARSAW +       LGT RAIN  41  39  93 NW10      29.72S

$$

INZ006>009-017-018-025>027-050600-
NORTHEAST INDIANA

CITY           SKY/WX    TMP DP  RH WIND       PRES   REMARKS
ANGOLA *+      CLOUDY    39  36  87 E5        29.73R
AUBURN +       CLOUDY    39  36  87 CALM      29.74R
FORT WAYNE     DRIZZLE   40  38  93 CALM      29.74S FOG
HUNTINGTON +   CLOUDY    39  38  96 NW5       29.73S FOG

$$

INZ028-029-035-036-043>045-051>053-050600-
WEST CENTRAL INDIANA

CITY           SKY/WX    TMP DP  RH WIND       PRES   REMARKS
CRAWFORDSVL +  CLOUDY    42  37  85 NW14G22   29.81S
GREENCASTLE +  CLOUDY    43  39  87 NW9       29.81F
LAFAYETTE      CLOUDY    42  36  79 NW12      29.80F
TERRE HAUTE    CLOUDY    49  39  68 NW7       29.83R

$$

INZ030>032-037>040-046>048-054>057-064-065-050600-
CENTRAL INDIANA

CITY           SKY/WX    TMP DP  RH WIND       PRES   REMARKS
CP ATTERBURY + DRIZZLE   45  37  76 NW12G18   29.78F
FRANKFORT +    LGT RAIN  42  32  68 NW16G22   29.79S
GREENWOOD *+   CLOUDY    43  39  87 NW9G20    29.78F
INDIANAPOLIS   LGT RAIN  43  38  82 NW14      29.77F
-EAGLE CREEK   LGT RAIN  44  39  82 NW13      29.77S
KOKOMO *+      CLOUDY    41  37  87 NW13      29.75S
MARION +       CLOUDY    39  37  93 NW7       29.75S
SHELBYVILLE    LGT RAIN  46  38  73 NW14      29.75F
ZIONSVILLE +   DRIZZLE   41  38  87 NW13G20   29.77S

$$

INZ033-034-041-042-049-050-058-059-050600-
EAST CENTRAL INDIANA

CITY           SKY/WX    TMP DP  RH WIND       PRES   REMARKS
MUNCIE         CLOUDY    41  38  89 NW7       29.74F FOG

$$

INZ060-061-067>069-081>083-085>088-050600-
SOUTHWEST INDIANA

CITY           SKY/WX    TMP DP  RH WIND       PRES   REMARKS
EVANSVILLE     CLOUDY    51  42  71 W3        29.85F
HUNTINGBURG *+ CLOUDY    48  41  76 W5        29.83S
WASHINGTON +   CLOUDY    49  46  91 W3        29.82S

$$

INZ062-063-066-070>080-084-089>092-050600-
SOUTH CENTRAL AND SOUTHEAST INDIANA

CITY           SKY/WX    TMP DP  RH WIND       PRES   REMARKS
BLOOMINGTON    CLOUDY    47  39  74 NW3       29.80F
MADISON *+     MOCLDY    45  39  81 W5        29.80F
NORTH VERNON + CLOUDY    46  43  87 W8        29.78F
SEYMOUR +      MOCLDY    48  39  71 NW8       29.79F

$$




USA.gov is the U.S. government's official web portal to all federal, state and local government web resources and services.